Location: Unspecified
(0.0000°N, 0.0000°E)
Time: 02:32:26
(UTC+02:00)

JASON 3 - Pass Details

Date: 28 September 2021
Orbit: 1332 x 1343 km, 66.0° (Epoch: 24 October)

Event Time Altitude Azimuth Distance (km) Brightness Sun altitude
Rises 22:12:59 0° 308° (NW) 4,346 ? -35.6°
Reaches altitude 10° 22:16:48 10° 292° (WNW) 3,374 ? -36.5°
Maximum altitude 22:22:16 20° 249° (WSW) 2,709 ? -37.9°
Drops below altitude 10° 22:27:46 10° 206° (SSW) 3,374 ? -39.3°
Sets 22:31:38 0° 189° (S) 4,346 ? -40.3°
